Content
SEND FEEDBACK

Daily
Averages
Monthly
Summary
Italy

REGGIO DI CALABRIA, ITALY


Home > Europe > Italy
Elevation: 69 feet     Latitude: 38 04N     Longitude: 015 39E

WEATHER
 
SELECT A DAY
Number of Records: 121,493;   Date Range: 7/1/96 - 12/16/14
 
SHARE

PRINT THIS DATA

[ ← Previous Day ]
WEATHER ALMANAC - MARCH 25, 2013
[ Next Day → ]
[ °C ]   °F
Weather ElementAverageHighLow
Temperature58.3 °F64.4 °F (9:50 am)53.6 °F (7:50 pm)
Dewpoint49.1 °F51.8 °F (2:50 pm)44.6 °F (11:50 am)
Humidity72.5 %88 % (4:50 pm)49 % (11:50 am)
Barometer29.49 in29.62 in (11:50 pm)29.44 in (12:50 pm)
Wind Speed11.6 mph24.2 mph (9:50 pm)
Wind Gust44.9 mph (9:50 pm)
Weather ElementAverage
Visibility6 mi
Wind DirectionS (176.8 °)

Weather ElementTotal
Precipitation---
Heating Degree Days6 (Base 65)
Growing Degree Days9 (Base 50)
Averaged from 19 records on March 25, 2013
WEATHER CONDITIONS BREAKOUT
WIND DIRECTION BREAKOUT
WEATHER BY HOUR - MARCH 25, 2013
[ °C ]   °F
Local TimeTemperatureDewpointHumidityBarometerVisibilityWind DirectionWind SpeedGust SpeedPrecipitationEventsConditions
6:50 AM57.2 °F48.2 °F72 %29.47 in6.2 miNNW (340°)13.8 mphScattered Clouds
7:00 AM55.4 °F48.2 °F77 %29.47 in6.2 miNNW (330°)13.8 mphRainRain
7:50 AM55.4 °F48.2 °F77 %29.47 in6.2 miNNE (30°)9.2 mphRain-ThunderstormLight Rain
8:50 AM59.0 °F48.2 °F67 %29.47 in6.2 miENE (60°)10.4 mphPartly Cloudy
9:50 AM64.4 °F48.2 °F56 %29.47 in6.2 miNNE (30°)6.9 mphPartly Cloudy
10:50 AM64.4 °F50.0 °F59 %29.47 in6.2 miNorth (350°)12.7 mphPartly Cloudy
11:50 AM64.4 °F44.6 °F49 %29.47 in6.2 miNW (310°)4.6 mphScattered Clouds
12:50 PM64.4 °F48.2 °F56 %29.44 in6.2 miSSE (160°)11.5 mphScattered Clouds
1:50 PM60.8 °F50.0 °F68 %29.44 in6.2 miSouth (170°)10.4 mphScattered Clouds
2:50 PM59.0 °F51.8 °F77 %29.44 in6.2 miSouth (180°)15.0 mphRainLight Rain
3:50 PM59.0 °F51.8 °F77 %29.44 in6.2 miVariable3.5 mphScattered Clouds
4:50 PM55.4 °F51.8 °F88 %29.44 in6.2 miNNE (20°)11.5 mphMostly Cloudy
5:50 PM55.4 °F50.0 °F82 %29.47 in6.2 miNE (40°)10.4 mphMostly Cloudy
6:50 PM55.4 °F48.2 °F77 %29.50 in6.2 miNNW (340°)11.5 mphRainLight Rain
7:50 PM53.6 °F48.2 °F82 %29.56 in4.3 miNNE (20°)9.2 mphRainLight Rain
8:50 PM55.4 °F48.2 °F77 %29.53 in6.2 miNNE (20°)5.8 mphRainLight Rain
9:50 PM57.2 °F50.0 °F77 %29.56 in6.2 miWNW (290°)24.2 mph44.9 mphRainLight Rain
10:50 PM57.2 °F50.0 °F77 %29.56 in5.6 miNNW (330°)19.6 mph33.4 mphRainLight Rain
11:50 PM55.4 °F50.0 °F82 %29.62 in5.6 miNNW (340°)16.1 mph28.8 mphRainLight Rain
Hourly data recorded from LICR, located miles away from Reggio di Calabria, Italy







STORIES FROM OUR PARTNERS